Theta_e
317 317 316 315 313 310 309 309 307 319 320 308 308 303 306 306 309 312 310 309 308 306 307 305 308 309 309 313 311 304 306 300 296 301 306 307 303 299 298 292 292 295 295 299
317 317 316 314 312 310 306 305 310 321 316 300 302 307 308 311 312 312 309 307 309 309 306 302 307 311 317 315 310 305 305 298 293 297 301 301 301 300 298 297 295 292 292 300
317 317 315 314 312 311 308 308 308 314 314 313 305 305 307 306 312 312 314 312 312 308 306 308 305 309 315 319 311 326 314 300 297 294 299 303 299 302 301 297 292 292 294 296
316 316 315 314 312 311 309 313 307 308 303 304 304 303 305 302 303 308 309 307 311 308 302 305 306 311 312 315 321 310 305 299 300 303 307 308 308 304 303 298 298 293 297 299
316 316 315 315 313 310 313 307 305 307 303 305 303 302 301 302 304 305 304 305 310 310 307 307 306 308 307 308 313 312 308 299 302 303 308 309 308 307 304 304 302 299 300 298
317 316 316 315 313 310 308 310 310 307 302 302 300 301 303 304 306 309 311 308 308 307 309 312 312 311 310 311 309 309 308 302 299 297 306 306 302 305 304 304 304 303 298 303
316 317 317 316 315 313 309 309 308 303 298 301 301 303 304 304 305 304 307 308 306 310 313 313 311 310 310 311 311 313 308 308 302 299 300 294 305 310 309 305 307 305 305 308
316 316 317 317 316 315 310 310 307 304 297 301 301 302 303 305 306 306 306 308 309 311 308 303 301 302 304 307 311 311 313 310 304 300 298 303 308 310 307 303 303 309 307 316
315 316 315 316 316 315 312 310 313 306 299 298 302 300 303 301 301 303 307 310 312 311 304 300 295 295 301 301 306 311 314 314 307 304 299 297 310 315 318 311 303 316 319 319
316 315 315 315 316 315 312 311 312 307 299 302 302 298 299 303 301 299 303 305 306 310 303 298 296 296 305 300 299 300 307 306 303 304 300 306 315 318 318 304 311 325 326 324
316 316 316 316 315 316 312 309 313 307 303 303 305 305 302 302 302 298 302 302 303 305 301 300 300 300 302 302 305 303 303 305 304 305 301 299 320 316 315 322 324 329 328 327
316 316 316 316 316 316 314 305 312 315 307 304 309 309 310 308 306 302 302 301 301 304 300 302 303 301 305 305 302 308 302 306 306 307 306 315 319 317 324 328 327 329 328 330
315 315 316 316 316 316 314 308 309 311 305 304 304 303 309 311 310 310 299 302 304 303 306 302 303 301 308 303 308 310 314 317 312 312 315 318 320 321 328 330 329 332 332 333
315 315 314 314 315 315 314 309 310 312 306 297 299 309 306 311 310 310 310 306 307 306 305 301 301 300 310 307 306 306 313 315 314 314 319 322 324 323 327 325 323 324 332 332
315 314 314 314 315 314 314 313 312 315 305 297 298 304 307 309 308 307 308 306 305 304 301 300 299 305 305 306 308 308 317 314 311 312 321 318 321 326 331 328 326 330 330 331
314 314 314 313 314 314 312 305 312 318 313 301 293 304 303 306 307 307 306 305 305 304 302 301 303 306 303 299 302 313 318 322 323 319 321 322 324 328 331 329 329 331 331 331
314 314 314 313 313 311 306 304 309 312 315 301 294 295 306 308 308 307 305 307 305 304 302 301 301 302 304 300 297 307 317 322 324 322 320 318 322 320 324 329 330 329 333 333
314 314 314 313 312 310 307 313 311 312 307 304 293 293 298 307 301 300 308 303 304 304 302 303 301 303 302 298 306 317 320 322 320 319 322 321 322 322 320 324 325 324 325 333
313 313 313 311 309 306 311 314 313 314 306 296 295 292 290 305 304 305 305 306 299 305 299 300 302 299 297 304 306 317 320 319 318 320 320 321 321 320 320 323 324 322 322 323
313 310 307 302 309 314 314 310 304 303 303 300 294 300 293 298 299 299 302 304 299 295 299 303 298 297 304 308 311 319 318 320 321 316 315 317 316 319 317 319 321 322 321 321
310 308 307 313 314 311 305 299 297 299 294 298 298 298 294 301 294 296 304 300 300 293 297 297 297 296 301 307 311 320 320 319 320 319 320 319 318 318 319 317 320 321 322 322
310 306 310 315 309 303 297 296 298 296 294 301 298 301 300 301 304 298 301 298 301 294 303 297 294 301 306 308 309 320 320 321 320 321 319 321 324 325 327 327 328 325 321 324
312 307 305 305 303 292 294 290 291 289 296 300 301 298 304 304 302 299 299 294 295 304 301 295 301 304 309 308 313 319 319 321 322 327 332 332 332 335 332 330 331 333 327 324
305 301 288 296 295 298 300 300 301 304 302 302 302 302 302 305 299 299 287 294 302 296 296 300 309 315 321 324 325 323 323 325 326 327 329 330 331 331 335 335 332 333 326 325
304 301 290 297 303 304 305 306 307 308 309 308 306 306 305 304 302 303 302 298 294 294 299 304 309 314 318 320 322 323 323 323 322 323 324 326 328 329 332 335 335 333 329 327
305 302 299 303 301 301 304 304 303 308 309 312 309 302 300 301 303 298 291 293 292 298 305 307 309 312 314 317 320 321 324 324 324 325 325 326 326 326 331 334 336 335 332 330
302 301 305 304 304 303 305 307 307 312 306 301 304 299 298 306 300 299 299 295 300 304 307 311 310 312 314 318 321 324 325 324 324 325 326 325 326 327 327 329 332 336 333 333
Wind_Speed
18 20 22 24 25 29 10 7 4 2 2 1 4 6 8 8 19 20 13 7 8 12 17 17 16 10 7 10 15 10 11 7 7 11 8 11 9 11 11 7 10 4 6 4
18 19 22 23 21 18 8 7 5 7 4 2 5 8 13 16 15 14 9 5 13 15 14 12 13 15 18 15 11 9 7 3 4 11 9 3 9 9 8 8 5 8 3 6
18 20 22 23 22 19 6 5 5 4 5 2 13 13 8 13 17 18 17 11 9 12 14 14 12 17 18 27 8 10 8 3 9 8 11 6 8 9 9 7 4 6 7 5
19 20 21 23 26 28 2 4 4 6 6 9 17 15 14 14 13 13 17 12 15 8 8 13 12 17 16 23 5 3 4 6 5 9 7 9 12 12 12 10 10 8 9 9
16 18 19 22 27 34 2 5 6 6 11 11 13 13 10 14 14 9 13 10 14 12 8 7 12 14 12 8 16 14 8 5 5 8 9 14 11 7 12 10 9 6 6 2
16 15 17 19 21 21 5 7 6 5 8 9 9 8 15 22 21 10 16 19 11 14 15 18 13 8 9 17 15 16 6 3 3 8 8 10 8 8 5 6 9 9 6 9
15 15 15 16 16 12 5 7 7 4 6 9 11 20 20 20 19 10 14 14 10 11 20 18 17 11 11 16 16 13 12 11 4 6 6 6 11 7 10 8 10 10 7 4
14 15 14 13 13 12 5 6 4 4 7 10 13 17 17 18 14 12 13 16 13 14 15 10 9 11 9 10 14 14 4 2 3 3 6 8 10 10 6 8 5 8 7 8
13 13 14 13 12 11 6 7 3 4 5 4 13 16 13 8 13 10 12 19 15 13 6 4 5 5 8 5 6 7 12 7 7 5 2 3 3 6 9 5 2 4 12 10
13 12 12 12 12 10 5 5 8 2 4 11 12 10 11 11 10 7 13 14 9 11 3 7 8 12 9 6 6 7 3 4 5 4 2 7 6 13 7 8 7 7 13 10
12 12 12 11 11 9 5 6 9 2 4 13 14 14 10 10 8 6 13 10 10 6 4 3 6 6 8 11 12 10 8 5 3 2 3 8 5 24 4 6 5 8 9 8
13 13 12 11 11 9 5 5 5 4 3 8 18 16 18 18 16 11 7 11 11 5 5 7 6 7 6 7 11 9 9 7 7 12 10 10 8 11 15 6 7 5 4 6
13 13 13 12 11 10 6 6 8 4 4 8 10 11 9 10 14 14 11 7 8 10 6 5 4 6 5 5 5 8 14 13 4 7 4 9 21 14 8 12 7 1 2 6
12 12 12 11 11 10 7 5 6 1 4 4 8 10 12 18 16 17 15 17 14 13 7 7 6 5 5 2 8 12 6 8 11 7 15 20 3 9 13 17 14 7 4 4
11 12 12 12 12 10 7 7 7 4 3 3 9 16 21 14 14 15 16 12 13 9 8 6 6 7 8 4 4 6 4 4 5 4 12 11 19 11 9 15 16 12 8 6
10 12 12 11 10 8 4 2 3 1 4 2 4 7 16 14 14 14 13 13 10 6 6 4 5 14 9 5 5 3 4 3 4 6 18 13 16 21 9 11 8 6 9 7
11 11 10 9 8 4 3 3 1 7 2 1 5 6 4 9 7 3 6 9 5 6 8 8 7 8 6 4 12 14 2 6 10 16 20 22 23 22 38 13 6 3 9 8
11 11 10 8 8 7 5 2 10 0 2 1 4 5 6 4 4 5 3 6 9 8 6 6 5 3 3 6 4 4 4 4 12 13 12 11 16 28 33 9 9 11 9 8
10 11 9 4 2 3 1 4 5 3 2 3 4 3 4 6 3 3 4 3 2 3 5 6 2 6 8 7 10 6 2 4 4 10 15 17 17 17 29 9 6 6 9 8
12 5 3 3 3 5 5 2 2 2 3 3 4 2 5 1 3 3 3 3 3 3 7 4 11 14 11 11 7 12 9 10 5 15 11 6 15 17 25 10 7 8 6 8
3 3 2 1 4 1 0 2 2 2 3 4 5 6 6 4 4 2 3 4 4 4 5 7 5 8 15 16 10 14 13 13 9 11 12 15 18 16 16 9 8 6 6 2
4 3 5 3 2 3 4 3 1 2 4 4 3 5 5 3 3 4 2 3 4 6 4 6 3 5 13 17 15 14 18 17 17 21 19 17 18 10 8 6 8 7 4 5
4 3 4 3 1 2 4 3 2 4 4 5 4 5 3 4 4 4 2 4 6 6 4 7 4 6 11 14 8 9 13 12 8 4 6 9 5 9 6 4 6 7 5 1
3 3 5 3 2 4 4 3 4 5 6 7 7 5 4 3 6 2 4 6 1 4 4 4 6 10 10 7 4 7 8 6 6 6 5 6 4 7 6 9 7 7 3 1
3 2 3 4 4 7 7 4 3 8 7 5 3 3 4 4 4 2 3 3 4 5 6 5 8 13 9 10 10 10 9 8 7 6 6 4 3 7 6 7 8 5 4 3
3 4 5 5 6 8 6 6 4 4 3 1 3 2 4 4 3 4 3 5 4 4 2 4 6 8 9 9 9 9 8 8 9 8 7 7 6 7 6 5 6 5 4 6
3 3 4 3 8 8 7 9 8 10 7 5 4 3 2 4 4 5 6 4 5 6 5 3 7 7 3 6 6 6 6 6 6 7 7 7 8 9 6 7 6 6 4 5
Wind_Direction
342 341 341 341 344 344 352 326 288 24 149 290 223 236 257 272 284 284 293 327 301 293 305 313 314 300 300 229 201 209 211 190 250 246 202 174 186 195 195 137 284 220 174 231
344 344 342 342 349 8 324 314 274 268 198 258 278 284 286 303 322 310 283 305 303 324 312 303 300 306 278 281 187 186 211 198 292 320 320 207 188 224 204 206 196 240 163 242
350 348 344 341 341 344 327 291 310 338 332 344 360 339 324 342 337 330 337 326 303 312 313 319 304 298 321 325 137 138 93 179 176 216 225 185 204 208 222 192 145 233 223 239
350 347 345 342 340 336 289 235 359 26 326 341 323 312 322 320 318 325 329 325 321 286 305 310 338 10 347 330 23 136 131 199 246 248 278 273 252 202 207 200 222 169 250 233
347 347 347 348 347 335 240 4 356 346 299 301 320 320 298 282 289 282 294 296 311 311 333 12 343 358 352 284 345 342 306 247 248 290 305 295 291 224 204 201 215 238 235 251
344 344 349 353 360 350 348 348 348 312 297 308 303 296 316 327 327 332 347 360 353 332 357 339 323 308 287 281 289 297 289 250 230 264 277 292 312 205 239 221 198 187 215 227
343 348 349 352 2 13 328 314 328 288 294 320 313 320 315 310 326 331 322 326 326 311 317 323 320 303 284 277 276 261 280 304 195 236 284 278 250 246 198 217 195 205 222 200
340 344 345 349 352 356 335 298 351 314 309 322 311 342 330 325 324 327 330 317 299 300 304 314 320 326 297 266 269 271 209 109 336 104 244 250 285 286 216 173 244 170 167 108
333 338 342 344 346 350 331 313 350 314 302 190 353 326 319 354 348 328 324 356 330 314 263 262 258 269 314 288 305 263 86 96 111 16 70 284 350 325 342 126 38 109 104 98
328 327 332 333 339 352 337 292 303 289 288 282 354 323 323 321 324 303 305 345 317 318 294 248 251 257 287 260 257 283 20 338 141 203 209 278 306 316 3 91 209 59 77 84
322 317 318 318 323 334 337 296 290 234 271 289 279 300 321 327 321 302 335 325 13 325 333 303 281 278 270 287 273 252 175 128 308 264 100 256 336 346 68 195 54 82 87 88
328 319 314 311 306 307 324 280 294 18 252 278 309 285 274 267 270 285 290 302 315 313 359 356 342 318 298 293 284 251 253 224 197 201 209 197 140 214 274 94 87 48 101 116
322 321 318 313 302 292 269 288 301 307 265 273 250 266 288 255 241 233 248 265 277 282 311 315 297 270 6 356 354 317 350 29 334 8 294 174 164 224 204 93 71 19 150 103
316 319 318 316 311 297 275 273 279 133 273 274 291 302 312 312 303 290 264 240 256 266 275 276 282 296 286 262 272 314 280 323 332 279 26 343 326 227 136 126 123 339 260 124
315 313 315 317 317 309 284 250 258 214 229 292 297 307 278 281 249 256 272 270 259 240 243 242 251 277 289 303 249 262 21 12 358 297 344 301 265 249 130 139 155 167 166 106
309 312 310 308 324 337 302 272 60 342 203 299 298 309 280 282 288 279 258 244 258 271 272 243 239 263 279 262 282 360 120 21 45 352 324 310 359 340 124 116 122 132 106 127
304 307 297 296 325 297 251 308 339 345 66 269 292 277 277 308 248 259 260 277 251 231 255 257 245 267 300 277 281 302 354 6 46 37 357 4 359 334 296 113 119 111 101 82
297 300 293 286 303 276 275 249 220 35 273 251 261 270 281 38 330 304 279 237 236 239 237 243 268 277 213 249 260 71 47 73 47 48 25 360 354 335 335 23 54 59 55 56
306 297 291 276 207 229 135 128 129 200 250 256 230 256 297 349 336 275 279 234 240 217 236 226 233 245 226 206 229 120 90 90 70 71 43 1 359 314 317 308 42 70 69 61
299 276 228 249 201 135 149 158 194 181 203 214 262 171 253 1 267 283 280 272 213 231 211 215 216 242 263 259 254 142 162 144 148 90 70 318 295 278 294 336 10 50 54 63
215 238 253 83 135 182 229 256 216 170 240 208 237 217 229 186 225 251 273 311 268 221 209 189 217 209 220 242 249 165 167 158 168 135 170 209 251 258 267 298 334 9 7 32
313 294 277 219 222 213 263 224 253 306 311 282 236 237 208 197 211 229 239 260 273 250 7 185 242 220 182 206 230 193 177 180 190 181 203 198 231 308 311 340 339 343 344 10
258 212 241 169 162 6 270 347 46 270 242 241 273 301 254 175 176 212 225 240 250 333 247 182 242 209 180 204 213 158 173 214 223 184 84 329 25 2 333 312 310 307 293 64
246 247 321 234 210 246 234 231 242 211 223 257 263 273 254 186 181 188 163 244 232 261 264 88 34 43 50 110 104 74 63 90 89 42 53 82 15 319 311 295 252 261 250 249
266 297 257 251 296 299 296 253 239 250 228 231 274 264 242 262 254 205 304 181 94 329 17 357 349 3 22 35 37 48 34 16 26 24 32 14 337 300 283 291 288 232 207 217
266 243 264 276 326 290 306 297 295 321 352 198 143 295 299 276 318 92 333 11 360 315 15 353 352 4 4 11 27 24 9 4 352 348 351 321 320 301 265 288 306 285 219 214
245 253 277 322 326 349 339 10 359 348 4 346 309 275 289 312 4 21 37 1 292 308 315 321 324 307 317 321 337 10 352 347 317 306 302 302 303 302 299 287 285 293 285 261